South Haven, MI

7:20 AM EDT on October 14, 2019 (GMT -0400)
South Haven

Weather History for KLWA - September, 2019

Change the Weather History Date:

Tuesday, September 17, 2019

  Actual Average (KBEH) Record (KBEH)
Temperature  
Mean Temperature 68 °F -  
Max Temperature 78 °F 72 °F 91 °F (1955)
Min Temperature 57 °F 53 °F 32 °F (1990)
Cooling Degree Days 2    
Growing Degree Days 18 (Base 50)    
Moisture  
Dew Point 62 °F    
Average Humidity 87    
Maximum Humidity 100    
Minimum Humidity 55    
Precipitation  
Precipitation 0.00 in - - ()
Sea Level Pressure  
Sea Level Pressure 30.17 in    
Wind  
Wind Speed 1 mph (ESE)    
Max Wind Speed 7 mph    
Max Gust Speed -    
Visibility 7 miles    
Events Fog    
Averages and records for this station are not official NWS values.
T = Trace of Precipitation, MM = Missing Value Source: NWS Daily Summary

Daily Weather History Graph

Daily Weather History Graph

Search for Another Location

Airport or City:

Astronomy

Sep. 17, 2019 Rise Set
Actual Time 7:26 AM EDT 7:51 PM EDT
Civil Twilight 6:58 AM EDT 8:19 PM EDT
Nautical Twilight 6:25 AM EDT 8:52 PM EDT
Astronomical Twilight 5:51 AM EDT 9:26 PM EDT
Moon 9:50 PM EDT (9/17) 10:33 AM EDT (9/17)
Length of Visible Light 13h 20m
Length of Day
12h 24m
Waning Gibbous, 89% of the Moon is Illuminated
Sep 17
Waning Gibbous
Sep 21
Last Quarter
Sep 28
New
Oct 5
First Quarter
Oct 13
Full

Hourly Weather History & Observations

Time (EDT) Temp. Dew Point Humidity Pressure Visibility Wind Dir Wind Speed Gust Speed Precip Events Conditions
12:16 AM 60.6 °F 60.6 °F 100% 30.14 in 4.0 mi Calm Calm - N/A   Clear
12:35 AM 59.2 °F 59.2 °F 100% 30.14 in 2.0 mi Calm Calm - N/A   Clear
12:36 AM 59.4 °F 59.4 °F 100% 30.14 in 2.0 mi Calm Calm - N/A   Clear
12:55 AM 59.2 °F 59.2 °F 100% 30.14 in 1.2 mi Calm Calm - N/A   Mist
1:19 AM 58.8 °F 58.8 °F 100% 30.14 in 2.0 mi Calm Calm - N/A   Clear
1:37 AM 58.5 °F 58.5 °F 100% 30.14 in 7.0 mi Calm Calm - N/A   Clear
1:55 AM 58.6 °F 58.6 °F 100% 30.15 in 7.0 mi Calm Calm - N/A   Clear
2:15 AM 57.4 °F 57.4 °F 100% 30.15 in 10.0 mi Calm Calm - N/A   Clear
2:35 AM 58.3 °F 58.3 °F 100% 30.15 in 1.0 mi Calm Calm - N/A   Mist
3:16 AM 57.2 °F 57.2 °F 100% 30.16 in 2.5 mi Calm Calm - N/A   Clear
3:35 AM 57.6 °F 57.6 °F 100% 30.16 in 7.0 mi Calm Calm - N/A   Clear
3:36 AM 57.7 °F 57.7 °F 100% 30.16 in 7.0 mi Calm Calm - N/A   Clear
3:55 AM 57.6 °F 57.6 °F 100% 30.16 in 1.2 mi Calm Calm - N/A   Mist
4:19 AM 58.1 °F 58.1 °F 100% 30.16 in 1.2 mi Calm Calm - N/A   Mist
4:37 AM 58.5 °F 58.5 °F 100% 30.16 in 5.0 mi Calm Calm - N/A   Clear
4:55 AM 59.2 °F 59.2 °F 100% 30.16 in 5.0 mi Calm Calm - N/A   Clear
4:56 AM 59.2 °F 59.2 °F 100% 30.16 in 5.0 mi Calm Calm - N/A   Clear
5:35 AM 59.4 °F 59.4 °F 100% 30.16 in 4.0 mi Calm Calm - N/A   Clear
5:58 AM 59.5 °F 59.5 °F 100% 30.16 in 4.0 mi East 3.5 mph - N/A   Clear
6:16 AM 59.5 °F 59.5 °F 100% 30.17 in 4.0 mi Calm Calm - N/A   Clear
6:35 AM 59.7 °F 59.7 °F 100% 30.17 in 5.0 mi Calm Calm - N/A   Clear
6:55 AM 59.9 °F 59.9 °F 100% 30.17 in 4.0 mi Calm Calm - N/A   Clear
7:19 AM 59.5 °F 59.5 °F 100% 30.19 in 4.0 mi Calm Calm - N/A   Clear
7:37 AM 59.2 °F 59.2 °F 100% 30.19 in 0.5 mi Calm Calm - N/A Fog Fog
7:55 AM 59.9 °F 59.9 °F 100% 30.20 in 0.2 mi Calm Calm - N/A Fog Fog
8:15 AM 60.1 °F 60.1 °F 100% 30.21 in 0.2 mi East 3.5 mph - N/A Fog Fog
8:35 AM 60.6 °F 60.6 °F 100% 30.22 in 0.2 mi Calm Calm - N/A Fog Fog
8:40 AM 60.8 °F 60.8 °F 100% 30.22 in 0.2 mi East 3.5 mph - N/A Fog Fog
8:58 AM 61.5 °F 61.5 °F 100% 30.22 in 0.2 mi East 3.5 mph - N/A Fog Fog
9:16 AM 61.7 °F 61.7 °F 100% 30.22 in 0.2 mi East 4.6 mph - N/A Fog Fog
9:35 AM 62.4 °F 62.4 °F 100% 30.22 in 0.2 mi East 3.5 mph - N/A Fog Fog
9:55 AM 62.6 °F 62.6 °F 100% 30.22 in 0.8 mi East 4.6 mph - N/A   Overcast
10:19 AM 63.5 °F 63.5 °F 100% 30.22 in 2.5 mi ESE 6.9 mph - N/A   Overcast
10:37 AM 64.2 °F 64.2 °F 100% 30.21 in 5.0 mi ESE 5.8 mph - N/A   Overcast
10:55 AM 64.9 °F 64.9 °F 100% 30.21 in 7.0 mi East 3.5 mph - N/A   Overcast
11:15 AM 66.2 °F 66.2 °F 100% 30.21 in 10.0 mi East 3.5 mph - N/A   Overcast
11:35 AM 67.6 °F 67.6 °F 100% 30.21 in 10.0 mi SE 5.8 mph - N/A   Mostly Cloudy
11:40 AM 68.0 °F 67.6 °F 99% 30.21 in 10.0 mi SE 5.8 mph - N/A   Mostly Cloudy
11:58 AM 69.8 °F 67.3 °F 92% 30.21 in 10.0 mi SE 4.6 mph - N/A   Scattered Clouds
12:16 PM 70.9 °F 66.9 °F 87% 30.20 in 10.0 mi SE 3.5 mph - N/A   Clear
12:35 PM 72.5 °F 65.5 °F 79% 30.20 in 10.0 mi Calm Calm - N/A   Clear
12:56 PM 73.4 °F 64.4 °F 73% 30.19 in 10.0 mi East 6.9 mph - N/A   Clear
1:19 PM 74.1 °F 61.9 °F 65% 30.19 in 10.0 mi East 4.6 mph - N/A   Clear
1:37 PM 75.2 °F 62.1 °F 64% 30.19 in 10.0 mi ESE 5.8 mph - N/A   Clear
1:55 PM 75.6 °F 62.1 °F 63% 30.19 in 10.0 mi ENE 3.5 mph - N/A   Clear
2:15 PM 76.1 °F 61.2 °F 60% 30.18 in 10.0 mi East 3.5 mph - N/A   Clear
2:35 PM 76.6 °F 61.0 °F 58% 30.18 in 10.0 mi Calm Calm - N/A   Clear
2:40 PM 76.1 °F 61.3 °F 60% 30.18 in 10.0 mi Calm Calm - N/A   Clear
2:58 PM 76.8 °F 60.3 °F 56% 30.17 in 10.0 mi East 4.6 mph - N/A   Clear
3:16 PM 77.2 °F 60.1 °F 55% 30.17 in 10.0 mi South 4.6 mph - N/A   Clear
3:35 PM 77.9 °F 60.4 °F 55% 30.16 in 10.0 mi East 3.5 mph - N/A   Clear
3:36 PM 77.7 °F 60.3 °F 55% 30.16 in 10.0 mi ENE 4.6 mph - N/A   Clear
3:56 PM 77.2 °F 60.3 °F 56% 30.16 in 10.0 mi ESE 3.5 mph - N/A   Clear
4:19 PM 78.1 °F 60.6 °F 55% 30.15 in 10.0 mi ESE 4.6 mph - N/A   Clear
4:37 PM 77.9 °F 60.8 °F 56% 30.15 in 10.0 mi SE 6.9 mph - N/A   Clear
4:55 PM 77.7 °F 61.3 °F 57% 30.14 in 10.0 mi SSE 4.6 mph - N/A   Clear
4:56 PM 77.7 °F 61.3 °F 57% 30.14 in 10.0 mi SSE 4.6 mph - N/A   Clear
5:15 PM 77.2 °F 61.5 °F 58% 30.14 in 10.0 mi East 5.8 mph - N/A   Clear
5:16 PM 77.2 °F 61.3 °F 58% 30.14 in 10.0 mi ESE 6.9 mph - N/A   Clear
5:35 PM 77.2 °F 60.8 °F 57% 30.14 in 10.0 mi ESE 4.6 mph - N/A   Clear
5:58 PM 77.0 °F 61.2 °F 58% 30.14 in 10.0 mi ESE 4.6 mph - N/A   Clear
6:15 PM 76.6 °F 62.1 °F 61% 30.14 in 10.0 mi SE 4.6 mph - N/A   Clear
6:35 PM 76.1 °F 61.2 °F 60% 30.14 in 10.0 mi ESE 3.5 mph - N/A   Clear
6:55 PM 75.2 °F 61.2 °F 62% 30.14 in 10.0 mi Calm Calm - N/A   Clear
7:19 PM 72.9 °F 68.0 °F 85% 30.14 in 10.0 mi Calm Calm - N/A   Clear
7:37 PM 70.5 °F 68.4 °F 93% 30.14 in 10.0 mi Calm Calm - N/A   Clear
7:55 PM 68.9 °F 68.4 °F 98% 30.14 in 10.0 mi Calm Calm - N/A   Clear
7:56 PM 68.7 °F 68.2 °F 98% 30.14 in 10.0 mi Calm Calm - N/A   Clear
8:15 PM 67.5 °F 67.1 °F 99% 30.14 in 10.0 mi Calm Calm - N/A   Clear
8:35 PM 66.9 °F 65.7 °F 96% 30.14 in 10.0 mi Calm Calm - N/A   Clear
8:58 PM 66.7 °F 64.6 °F 93% 30.14 in 10.0 mi Calm Calm - N/A   Clear
9:16 PM 65.8 °F 64.4 °F 95% 30.15 in 10.0 mi Calm Calm - N/A   Clear
9:35 PM 64.0 °F 63.9 °F 99% 30.15 in 10.0 mi Calm Calm - N/A   Clear
9:55 PM 63.1 °F 63.1 °F 100% 30.15 in 10.0 mi Calm Calm - N/A   Clear
10:37 PM 63.7 °F 63.7 °F 100% 30.17 in 10.0 mi Calm Calm - N/A   Clear
10:55 PM 61.9 °F 61.9 °F 100% 30.16 in 10.0 mi Calm Calm - N/A   Clear
10:56 PM 61.9 °F 61.9 °F 100% 30.17 in 10.0 mi Calm Calm - N/A   Clear
11:15 PM 61.3 °F 61.3 °F 100% 30.17 in 10.0 mi Calm Calm - N/A   Clear
11:16 PM 61.3 °F 61.3 °F 100% 30.17 in 10.0 mi Calm Calm - N/A   Clear
11:35 PM 61.3 °F 61.3 °F 100% 30.17 in 10.0 mi Calm Calm - N/A   Clear
11:40 PM 60.6 °F 60.6 °F 100% 30.17 in 10.0 mi Calm Calm - N/A   Clear
11:58 PM 61.2 °F 61.2 °F 100% 30.17 in 10.0 mi Calm Calm - N/A   Clear